| time (UTC) | temp F | wind direction | speed knots | gust knots | rain 1hr in | rain 24hr in | rain mn in | humidity % | barometer mb |
| 20260505101551 | 65 | 0 | 0.0 | 2.6 | 0.00 | 0.00 | 0.00 | 81 | 1002.2 |
| 20260505100052 | 66 | 0 | 0.0 | 2.6 | 0.00 | 0.00 | 0.00 | 81 | 1002.2 |
| 20260505094554 | 66 | 16 | 0.0 | 3.5 | 0.00 | 0.00 | 0.00 | 80 | 1002.1 |
| 20260505093053 | 66 | 23 | 0.0 | 2.6 | 0.00 | 0.00 | 0.00 | 79 | 1002.1 |
| 20260505091604 | 67 | 0 | 0.0 | 1.7 | 0.00 | 0.00 | 0.00 | 80 | 1002.2 |
| 20260505090049 | 67 | 23 | 0.0 | 1.7 | 0.00 | 0.00 | 0.00 | 79 | 1002.2 |
| 20260505084553 | 67 | 0 | 0.0 | 2.6 | 0.00 | 0.00 | 0.00 | 79 | 1002.4 |
| 20260505083053 | 67 | 22 | 0.0 | 2.6 | 0.00 | 0.00 | 0.00 | 78 | 1002.3 |
| 20260505081553 | 67 | 0 | 0.0 | 1.7 | 0.00 | 0.00 | 0.00 | 77 | 1002.6 |
| 20260505080100 | 67 | 0 | 0.0 | 1.7 | 0.00 | 0.00 | 0.00 | 78 | 1002.4 |
| 20260505074549 | 68 | 0 | 0.0 | 0.0 | 0.00 | 0.00 | 0.00 | 76 | 1003.0 |
| 20260505073053 | 68 | 0 | 0.0 | 1.7 | 0.00 | 0.00 | 0.00 | 76 | 1002.9 |
| 20260505071555 | 68 | 0 | 0.0 | 1.7 | 0.00 | 0.00 | 0.00 | 76 | 1003.2 |
| 20260505070053 | 68 | 0 | 0.0 | 2.6 | 0.00 | 0.00 | 0.00 | 77 | 1003.2 |
| 20260505064548 | 67 | 0 | 0.0 | 0.0 | 0.00 | 0.00 | 0.00 | 77 | 1003.4 |
| 20260505063110 | 68 | 0 | 0.0 | 0.0 | 0.00 | 0.00 | 0.00 | 76 | 1003.4 |
| 20260505061552 | 68 | 0 | 0.0 | 4.3 | 0.00 | 0.00 | 0.00 | 74 | 1002.8 |
| 20260505060056 | 68 | 0 | 0.0 | 3.5 | 0.00 | 0.00 | 0.00 | 74 | 1002.5 |
| 20260505054607 | 69 | 24 | 0.9 | 4.3 | 0.00 | 0.00 | 0.00 | 73 | 1002.6 |
| 20260505053056 | 69 | 22 | 0.9 | 7.8 | 0.00 | 0.00 | 0.00 | 73 | 1002.9 |
| 20260505051551 | 69 | 0 | 0.9 | 7.0 | 0.00 | 0.00 | 0.00 | 72 | 1002.9 |
| 20260505041555 | 69 | 24 | 1.7 | 7.0 | 0.00 | 0.00 | 0.00 | 69 | 1002.8 |
| 20260505040056 | 69 | 24 | 2.6 | 9.6 | 0.00 | 0.00 | 0.00 | 70 | 1003.1 |
| 20260505034549 | 69 | 24 | 1.7 | 9.6 | 0.00 | 0.00 | 0.00 | 70 | 1003.0 |
| 20260505033047 | 70 | 23 | 1.7 | 7.8 | 0.00 | 0.00 | 0.00 | 69 | 1003.4 |
| 20260505031600 | 70 | 24 | 0.9 | 5.2 | 0.00 | 0.00 | 0.00 | 66 | 1003.9 |
| 20260505030109 | 70 | 0 | 0.0 | 2.6 | 0.00 | 0.00 | 0.00 | 65 | 1003.8 |
| 20260505024559 | 71 | 0 | 0.0 | 7.0 | 0.00 | 0.00 | 0.00 | 64 | 1004.0 |
| 20260505023051 | 71 | 0 | 0.9 | 7.0 | 0.00 | 0.00 | 0.00 | 64 | 1003.9 |
| 20260505021558 | 72 | 24 | 0.9 | 5.2 | 0.00 | 0.00 | 0.00 | 63 | 1004.0 |
| 20260505020047 | 72 | 23 | 0.9 | 9.6 | 0.00 | 0.00 | 0.00 | 64 | 1004.1 |
| 20260505014604 | 72 | 24 | 0.0 | 4.3 | 0.00 | 0.00 | 0.00 | 64 | 1003.9 |
| 20260505013053 | 73 | 22 | 0.9 | 7.8 | 0.00 | 0.00 | 0.00 | 63 | 1003.9 |
| 20260505011604 | 73 | 23 | 0.9 | 5.2 | 0.00 | 0.00 | 0.00 | 63 | 1003.9 |
| 20260505010053 | 74 | 22 | 1.7 | 7.8 | 0.00 | 0.00 | 0.00 | 62 | 1003.7 |
| 20260505004550 | 74 | 22 | 0.9 | 5.2 | 0.00 | 0.00 | 0.00 | 63 | 1003.9 |
| 20260505003051 | 75 | 24 | 0.9 | 9.6 | 0.00 | 0.00 | 0.00 | 61 | 1003.9 |
| 20260505001551 | 75 | 28 | 2.6 | 10.4 | 0.00 | 0.00 | 0.00 | 61 | 1004.0 |
| 20260505000107 | 75 | 23 | 3.5 | 11.3 | 0.00 | 0.00 | 0.00 | 61 | 1004.3 |
| 20260504234551 | 76 | 26 | 1.7 | 10.4 | 0.00 | 0.00 | 0.00 | 61 | 1004.2 |
| 20260504233104 | 76 | 23 | 0.9 | 11.3 | 0.00 | 0.00 | 0.00 | 61 | 1004.3 |
| 20260504231552 | 77 | 22 | 2.6 | 12.2 | 0.00 | 0.00 | 0.00 | 60 | 1004.3 |
| 20260504230053 | 77 | 24 | 3.5 | 13.9 | 0.00 | 0.00 | 0.00 | 59 | 1004.4 |
| 20260504224558 | 77 | 22 | 1.7 | 13.9 | 0.00 | 0.00 | 0.00 | 60 | 1004.5 |
| 20260504223127 | 77 | 22 | 1.7 | 13.0 | 0.00 | 0.00 | 0.00 | 60 | 1004.4 |
| 20260504221554 | 78 | 22 | 3.5 | 11.3 | 0.00 | 0.00 | 0.00 | 59 | 1004.3 |
| 20260504220054 | 78 | 24 | 3.5 | 11.3 | 0.00 | 0.00 | 0.00 | 58 | 1004.2 |
| 20260504214553 | 79 | 26 | 3.5 | 12.2 | 0.00 | 0.00 | 0.00 | 58 | 1004.5 |
| 20260504213102 | 79 | 26 | 3.5 | 12.2 | 0.00 | 0.00 | 0.00 | 57 | 1004.6 |
| 20260504211554 | 79 | 24 | 5.2 | 17.4 | 0.00 | 0.00 | 0.00 | 56 | 1004.7 |
| 20260504210054 | 79 | 21 | 3.5 | 14.8 | 0.00 | 0.00 | 0.00 | 57 | 1004.8 |
| 20260504204550 | 79 | 23 | 2.6 | 15.6 | 0.00 | 0.00 | 0.00 | 57 | 1004.9 |
| 20260504203107 | 79 | 24 | 3.5 | 13.9 | 0.00 | 0.00 | 0.00 | 56 | 1005.3 |
| 20260504201558 | 79 | 26 | 3.5 | 15.6 | 0.00 | 0.00 | 0.00 | 57 | 1005.4 |
| 20260504200120 | 79 | 26 | 2.6 | 13.0 | 0.00 | 0.00 | 0.00 | 56 | 1005.6 |
| 20260504194601 | 79 | 22 | 2.6 | 16.5 | 0.00 | 0.00 | 0.00 | 57 | 1005.8 |
| 20260504193055 | 79 | 28 | 4.3 | 14.8 | 0.00 | 0.00 | 0.00 | 57 | 1005.9 |
| 20260504191557 | 79 | 23 | 3.5 | 13.9 | 0.00 | 0.00 | 0.00 | 57 | 1006.0 |
| 20260504190052 | 79 | 25 | 2.6 | 13.0 | 0.00 | 0.00 | 0.00 | 57 | 1006.2 |
| 20260504184557 | 78 | 24 | 3.5 | 16.5 | 0.00 | 0.00 | 0.00 | 58 | 1006.4 |
| 20260504183053 | 78 | 26 | 5.2 | 15.6 | 0.00 | 0.00 | 0.00 | 57 | 1006.7 |
| 20260504181554 | 78 | 26 | 5.2 | 20.0 | 0.00 | 0.00 | 0.00 | 57 | 1006.8 |
| 20260504180055 | 77 | 24 | 3.5 | 19.1 | 0.00 | 0.00 | 0.00 | 58 | 1006.8 |
| 20260504174548 | 77 | 23 | 4.3 | 14.8 | 0.00 | 0.00 | 0.00 | 58 | 1007.2 |
| 20260504173050 | 77 | 26 | 4.3 | 16.5 | 0.00 | 0.00 | 0.00 | 57 | 1007.4 |
| 20260504171550 | 76 | 26 | 2.6 | 13.0 | 0.00 | 0.00 | 0.00 | 58 | 1007.5 |
| 20260504150103 | 69 | 24 | 6.1 | 19.1 | 0.00 | 0.00 | 0.00 | 61 | 1008.7 |